Date,TemperatureHighF,TemperatureAvgF,TemperatureLowF,DewpointHighF,DewpointAvgF,DewpointLowF,HumidityHigh,HumidityAvg,HumidityLow,PressureMaxIn,PressureMinIn,WindSpeedMaxMPH,WindSpeedAvgMPH,GustSpeedMaxMPH,PrecipitationSumIn
2013-3-1,28,26,26,25,22,19,94,85,72,30.21,30.15,13,7,13,0.00
2013-3-2,42,29,22,27,20,14,95,72,53,30.30,30.12,14,5,14,0.00
2013-3-3,63,42,24,40,28,19,83,59,42,30.15,29.80,16,7,16,0.00
2013-3-4,64,52,40,44,38,31,72,61,46,29.85,29.62,18,7,18,0.00
2013-3-5,44,38,34,35,27,20,100,67,50,30.21,29.85,28,16,28,0.00
2013-3-6,43,35,31,25,23,22,70,61,49,30.24,30.21,6,2,6,0.00
2013-3-7,54,46,41,31,29,28,62,52,38,30.15,30.09,7,4,7,0.00
2013-3-8,68,51,38,45,37,29,79,58,43,30.21,30.00,17,8,17,0.00
2013-3-9,71,58,47,59,48,38,100,73,48,30.00,29.65,25,10,25,0.83
2013-3-10,55,46,30,55,45,30,100,98,83,29.88,29.62,22,10,22,0.33
2013-3-11,46,41,31,27,24,18,59,50,46,29.97,29.91,15,7,18,0.00
2013-3-12,52,46,39,31,26,21,65,46,43,30.27,30.15,17,10,19,0.00
2013-3-13,58,50,38,33,27,20,48,41,36,30.33,30.30,5,2,5,0.00
2013-3-14,73,62,37,56,45,22,95,55,38,30.21,30.03,20,5,20,0.00
2013-3-15,82,68,51,56,47,40,95,49,38,30.06,29.80,20,10,20,0.00
2013-3-16,78,65,43,51,46,36,80,52,38,29.88,29.77,18,9,18,0.00
2013-3-17,43,40,37,41,39,37,100,98,79,29.88,29.68,20,10,20,0.29
2013-3-18,57,50,39,35,30,25,58,47,43,29.97,29.85,17,6,17,0.00
2013-3-19,55,46,36,30,27,25,68,48,34,30.18,30.00,12,5,12,0.00
2013-3-20,44,31,27,30,16,12,89,55,37,30.30,30.06,5,2,6,0.00
2013-3-21,42,33,27,33,24,17,100,71,47,30.06,29.80,18,8,18,0.00
2013-3-22,39,35,32,37,34,31,100,97,88,29.91,29.80,14,6,14,0.17
2013-3-23,41,38,35,41,38,35,100,100,100,29.91,29.68,15,7,15,0.04
2013-3-24,38,33,28,38,30,20,100,91,70,30.06,29.62,26,12,26,0.17
2013-3-25,29,28,23,23,22,18,81,78,73,30.24,30.06,9,6,9,0.00
2013-3-26,50,36,20,31,24,16,100,62,47,30.39,30.21,9,4,11,0.00
2013-3-27,61,51,44,36,31,27,63,47,30,30.18,30.09,12,4,14,0.00
2013-3-28,73,58,44,52,42,32,66,55,47,30.18,30.06,15,6,15,0.00
2013-3-29,76,60,52,58,51,45,100,75,50,30.18,30.06,10,5,10,0.16
2013-3-30,74,59,52,57,53,49,100,83,51,30.09,29.85,18,6,18,0.46
2013-3-31,74,58,47,54,46,35,100,70,39,29.97,29.85,18,5,18,0.08